When you browse on this site, cookies collect data to enhance your experience and personalize the content and advertising you see.
Visit our Privacy Policy to learn more. By continuing to use the site, you agree to this use of cookies and data.
  • în România
  • Lista ţărilor
  • Pe 7 zile
  • Temperatura apei
  • Hartă satelitară
  • Meteo pe hartă
  • Widget-uri
  • user-avatar
    Intrare

    Meteo pe oră la San Miguel de Tucumán

    Astăzi, 18 Ianuarie, Vineri

    Timp Temperatura Precipitaţii Vânt Presiune Umiditate
    00:00 +18°C° 0 mm 2 m/s 724 mmHg 92%
    01:00 +18°C° 0 mm 2 m/s 724 mmHg 92%
    02:00 +18°C° 0 mm 2 m/s 724 mmHg 91%
    03:00 +19°C° 0 mm 1 m/s 724 mmHg 91%
    04:00 +18°C° 0 mm 1 m/s 724 mmHg 91%
    05:00 +18°C° 0 mm 1 m/s 724 mmHg 91%
    06:00 +19°C° 0 mm 1 m/s 725 mmHg 86%
    07:00 +20°C° 0 mm 1 m/s 725 mmHg 82%
    08:00 +20°C° 0 mm 1 m/s 726 mmHg 78%
    09:00 +22°C° 0 mm 1 m/s 726 mmHg 73%
    10:00 +23°C° 0 mm 2 m/s 726 mmHg 68%
    11:00 +25°C° 0 mm 2 m/s 726 mmHg 62%
    12:00 +25°C° 0 mm 2 m/s 725 mmHg 61%
    13:00 +26°C° 0 mm 2 m/s 724 mmHg 60%
    14:00 +26°C° 0 mm 2 m/s 723 mmHg 60%
    15:00 +26°C° 0 mm 1 m/s 723 mmHg 60%
    16:00 +26°C° 0 mm 1 m/s 723 mmHg 61%
    17:00 +26°C° 0 mm 1 m/s 722 mmHg 62%
    18:00 +25°C° 0 mm 1 m/s 722 mmHg 67%
    19:00 +21°C° 0 mm 0 m/s 723 mmHg 72%
    20:00 +20°C° 0 mm 0 m/s 723 mmHg 77%
    21:00 +19°C° 0 mm 0 m/s 723 mmHg 78%
    22:00 +19°C° 0 mm 0 m/s 724 mmHg 80%
    23:00 +19°C° 0 mm 0 m/s 724 mmHg 81%

    Mâine, 19 Ianuarie, Sâmbătă

    Timp Temperatura Precipitaţii Vânt Presiune Umiditate
    00:00 +18°C° 0 mm 0 m/s 724 mmHg 82%
    01:00 +18°C° 0 mm 0 m/s 724 mmHg 83%
    02:00 +18°C° 0 mm 0 m/s 723 mmHg 85%
    03:00 +17°C° 0 mm 0 m/s 723 mmHg 88%
    04:00 +17°C° 0 mm 0 m/s 723 mmHg 91%
    05:00 +16°C° 0 mm 0 m/s 723 mmHg 93%
    06:00 +17°C° 0 mm 0 m/s 724 mmHg 88%
    07:00 +21°C° 0 mm 1 m/s 724 mmHg 83%
    08:00 +22°C° 0 mm 1 m/s 725 mmHg 78%
    09:00 +24°C° 0 mm 1 m/s 724 mmHg 72%
    10:00 +25°C° 0 mm 2 m/s 724 mmHg 66%
    11:00 +27°C° 0 mm 2 m/s 724 mmHg 61%
    12:00 +27°C° 0 mm 2 m/s 723 mmHg 61%
    13:00 +27°C° 0 mm 2 m/s 723 mmHg 60%
    14:00 +27°C° 0 mm 2 m/s 722 mmHg 60%
    15:00 +27°C° 0 mm 2 m/s 721 mmHg 61%
    16:00 +27°C° 0 mm 2 m/s 721 mmHg 61%
    17:00 +27°C° 0 mm 2 m/s 720 mmHg 61%
    18:00 +26°C° 0 mm 1 m/s 720 mmHg 66%
    19:00 +25°C° 0 mm 1 m/s 721 mmHg 70%
    20:00 +23°C° 0 mm 1 m/s 721 mmHg 75%
    21:00 +23°C° 0 mm 1 m/s 721 mmHg 76%
    22:00 +22°C° 0 mm 1 m/s 722 mmHg 77%
    23:00 +22°C° 0 mm 1 m/s 722 mmHg 78%

    Poimâine, 20 Ianuarie, Duminică

    Timp Temperatura Precipitaţii Vânt Presiune Umiditate
    00:00 +21°C° 0 mm 1 m/s 722 mmHg 80%
    01:00 +21°C° 0 mm 1 m/s 721 mmHg 83%
    02:00 +21°C° 0 mm 1 m/s 720 mmHg 85%
    03:00 +20°C° 0 mm 1 m/s 720 mmHg 86%
    04:00 +20°C° 0 mm 1 m/s 719 mmHg 87%
    05:00 +20°C° 0 mm 1 m/s 719 mmHg 89%
    06:00 +21°C° 0 mm 1 m/s 719 mmHg 83%
    07:00 +23°C° 0 mm 1 m/s 720 mmHg 78%
    08:00 +24°C° 0 mm 2 m/s 720 mmHg 72%
    09:00 +26°C° 0 mm 2 m/s 720 mmHg 68%
    10:00 +28°C° 0 mm 2 m/s 720 mmHg 63%
    11:00 +30°C° 0 mm 3 m/s 720 mmHg 58%
    12:00 +30°C° 0 mm 3 m/s 719 mmHg 57%
    13:00 +31°C° 0 mm 3 m/s 718 mmHg 57%
    14:00 +33°C° 0 mm 3 m/s 717 mmHg 56%
    15:00 +31°C° 0 mm 3 m/s 717 mmHg 58%
    16:00 +31°C° 0 mm 2 m/s 716 mmHg 60%
    17:00 +30°C° 0 mm 2 m/s 715 mmHg 62%
    18:00 +29°C° 0 mm 1 m/s 716 mmHg 68%
    19:00 +28°C° 0 mm 1 m/s 716 mmHg 73%
    20:00 +24°C° 0 mm 0 m/s 717 mmHg 78%
    21:00 +24°C° 0 mm 0 m/s 717 mmHg 80%
    22:00 +24°C° 0 mm 0 m/s 718 mmHg 81%
    23:00 +23°C° 0 mm 0 m/s 718 mmHg 82%

    21 Ianuarie, Luni

    Timp Temperatura Precipitaţii Vânt Presiune Umiditate
    00:00 +23°C° 0 mm 0 m/s 718 mmHg 84%
    01:00 +24°C° 0 mm 1 m/s 718 mmHg 86%
    02:00 +24°C° 0 mm 1 m/s 717 mmHg 88%
    03:00 +23°C° 0 mm 1 m/s 717 mmHg 89%
    04:00 +23°C° 0 mm 1 m/s 717 mmHg 91%
    05:00 +21°C° 0 mm 0 m/s 717 mmHg 92%
    06:00 +24°C° 0 mm 1 m/s 718 mmHg 88%
    07:00 +25°C° 0 mm 1 m/s 719 mmHg 83%
    08:00 +26°C° 0 mm 1 m/s 719 mmHg 78%
    09:00 +27°C° 0 mm 1 m/s 720 mmHg 74%
    10:00 +29°C° 0 mm 1 m/s 720 mmHg 69%
    11:00 +30°C° 0 mm 2 m/s 720 mmHg 64%
    12:00 +31°C° 0 mm 2 m/s 719 mmHg 63%
    13:00 +32°C° 0 mm 2 m/s 719 mmHg 61%
    14:00 +32°C° 0 mm 2 m/s 718 mmHg 59%
    15:00 +32°C° 0 mm 1 m/s 718 mmHg 59%
    16:00 +32°C° 0 mm 1 m/s 717 mmHg 59%
    17:00 +32°C° 0 mm 1 m/s 717 mmHg 60%
    18:00 +31°C° 0 mm 1 m/s 717 mmHg 64%
    19:00 +29°C° 0 mm 1 m/s 717 mmHg 69%
    20:00 +28°C° 0 mm 1 m/s 718 mmHg 74%
    21:00 +28°C° 0 mm 1 m/s 718 mmHg 73%
    22:00 +27°C° 0 mm 1 m/s 718 mmHg 72%
    23:00 +27°C° 0 mm 1 m/s 718 mmHg 71%

    22 Ianuarie, Marţi

    Timp Temperatura Precipitaţii Vânt Presiune Umiditate
    00:00 +27°C° 0 mm 1 m/s 718 mmHg 72%
    01:00 +26°C° 0 mm 1 m/s 717 mmHg 74%
    02:00 +26°C° 0 mm 1 m/s 717 mmHg 75%
    03:00 +26°C° 0 mm 1 m/s 716 mmHg 76%
    04:00 +25°C° 0 mm 1 m/s 716 mmHg 77%
    05:00 +25°C° 0 mm 1 m/s 716 mmHg 78%
    06:00 +26°C° 0 mm 1 m/s 716 mmHg 77%
    07:00 +27°C° 0 mm 1 m/s 716 mmHg 75%
    08:00 +28°C° 0 mm 1 m/s 716 mmHg 73%
    09:00 +29°C° 0 mm 1 m/s 716 mmHg 68%
    10:00 +31°C° 0 mm 1 m/s 716 mmHg 63%
    11:00 +34°C° 0 mm 2 m/s 716 mmHg 58%
    12:00 +35°C° 0 mm 2 m/s 716 mmHg 54%
    13:00 +36°C° 0 mm 2 m/s 715 mmHg 50%
    14:00 +38°C° 0 mm 2 m/s 715 mmHg 46%
    15:00 +37°C° 0 mm 2 m/s 714 mmHg 49%
    16:00 +36°C° 0 mm 1 m/s 714 mmHg 51%
    17:00 +36°C° 0 mm 1 m/s 713 mmHg 54%
    18:00 +34°C° 0 mm 1 m/s 714 mmHg 61%
    19:00 +32°C° 0 mm 1 m/s 714 mmHg 68%
    20:00 +30°C° 0 mm 2 m/s 715 mmHg 75%
    21:00 +30°C° 0 mm 1 m/s 715 mmHg 73%
    22:00 +30°C° 0 mm 1 m/s 716 mmHg 70%
    23:00 +30°C° 0 mm 1 m/s 717 mmHg 67%

    23 Ianuarie, Miercuri

    Timp Temperatura Precipitaţii Vânt Presiune Umiditate
    00:00 +29°C° 0 mm 1 m/s 716 mmHg 67%
    01:00 +29°C° 0 mm 1 m/s 716 mmHg 66%
    02:00 +29°C° 0 mm 1 m/s 715 mmHg 65%
    03:00 +28°C° 0 mm 1 m/s 715 mmHg 65%
    04:00 +28°C° 0 mm 1 m/s 716 mmHg 64%
    05:00 +28°C° 0 mm 1 m/s 716 mmHg 63%
    06:00 +29°C° 0 mm 1 m/s 716 mmHg 61%
    07:00 +29°C° 0 mm 0 m/s 717 mmHg 58%
    08:00 +30°C° 0 mm 0 m/s 718 mmHg 55%
    09:00 +34°C° 0 mm 1 m/s 717 mmHg 51%
    10:00 +35°C° 0 mm 1 m/s 717 mmHg 46%
    11:00 +38°C° 0 mm 2 m/s 717 mmHg 41%
    12:00 +39°C° 0 mm 2 m/s 717 mmHg 41%
    13:00 +39°C° 0 mm 2 m/s 716 mmHg 41%
    14:00 +40°C° 0 mm 2 m/s 716 mmHg 40%
    15:00 +39°C° 0.1 mm 1 m/s 715 mmHg 42%
    16:00 +39°C° 0.1 mm 1 m/s 715 mmHg 44%
    17:00 +37°C° 0.1 mm 1 m/s 714 mmHg 45%
    18:00 +35°C° 0.1 mm 1 m/s 715 mmHg 51%
    19:00 +34°C° 0.1 mm 2 m/s 715 mmHg 57%
    20:00 +31°C° 0.1 mm 2 m/s 715 mmHg 63%
    21:00 +31°C° 0 mm 2 m/s 716 mmHg 62%
    22:00 +31°C° 0 mm 2 m/s 716 mmHg 61%
    23:00 +30°C° 0 mm 2 m/s 717 mmHg 59%
    Arată mai mult